FW6330 Weather Reports


time (UTC)temp
C
wind
direction
speed
KPH
gust
KPH
rain 1hr
cm
rain 24hr
cm
rain mn
cm
humidity
%
barometer
mb
20260506024538 5 259 0.0 0.0 0.00 0.00 0.00 92 1017.3
20260506023022 5 156 0.0 0.0 0.00 0.00 0.00 91 1017.2
20260506021521 6 107 0.0 0.0 0.00 0.00 0.00 90 1017.0
20260506020020 7 111 0.0 0.0 0.00 0.00 0.00 87 1016.8
20260506014518 8 160 0.0 0.0 0.00 0.00 0.00 85 1016.7
20260506013014 9 46 0.0 1.6 0.00 0.00 0.00 79 1016.6
20260506011507 10 114 0.0 4.8 0.00 0.00 0.00 66 1016.4
20260506010005 10 184 0.0 9.7 0.00 0.00 0.00 66 1016.4
20260506004558 11 70 0.0 6.4 0.00 0.00 0.00 67 1016.5
20260506003056 11 129 0.0 6.4 0.00 0.00 0.00 67 1016.5
20260506001554 10 69 0.0 12.9 0.00 0.00 0.00 64 1016.6
20260506000053 10 248 0.0 6.4 0.00 0.00 0.00 67 1016.6
20260505234558 10 330 0.0 20.9 0.00 0.00 0.00 66 1016.5
20260505233044 10 269 4.8 14.5 0.00 0.00 0.00 64 1016.6
20260505231555 10 116 1.6 6.4 0.00 0.00 0.00 65 1016.5
20260505230037 10 131 1.6 11.3 0.00 0.00 0.00 68 1016.7
20260505224532 10 211 1.6 16.1 0.00 0.00 0.00 68 1016.8
20260505223033 9 231 0.0 9.7 0.00 0.00 0.00 69 1016.8
20260505221524 10 294 1.6 11.3 0.00 0.00 0.00 70 1016.9
20260505220016 9 280 4.8 17.7 0.00 0.00 0.00 70 1017.0
20260505214518 9 152 1.6 12.9 0.00 0.00 0.00 71 1017.2
20260505213008 8 234 4.8 9.7 0.00 0.00 0.00 73 1017.2
20260505211505 8 354 3.2 12.9 0.00 0.00 0.00 74 1017.4
20260505210059 8 317 4.8 17.7 0.00 0.00 0.00 74 1017.3
20260505204554 8 69 1.6 17.7 0.00 0.00 0.00 78 1017.4
20260505203052 7 68 4.8 12.9 0.00 0.00 0.00 76 1017.3
20260505201544 7 168 3.2 12.9 0.00 0.00 0.00 79 1017.4
20260505200050 7 285 1.6 9.7 0.00 0.00 0.00 80 1017.3
20260505194537 6 265 4.8 14.5 0.00 0.00 0.00 81 1017.3
20260505193035 7 188 4.8 14.5 0.00 0.00 0.00 81 1017.1
20260505191526 7 113 3.2 12.9 0.00 0.00 0.00 82 1017.0
20260505190028 7 158 1.6 9.7 0.00 0.00 0.00 82 1016.8
20260505184520 7 311 0.0 3.2 0.00 0.00 0.00 84 1016.7
20260505183021 6 322 1.6 4.8 0.00 0.00 0.00 84 1016.6
20260505181509 6 229 0.0 4.8 0.00 0.00 0.00 88 1016.6
20260505180009 6 289 0.0 6.4 0.00 0.00 0.00 88 1016.3
20260505174605 5 56 0.0 1.6 0.00 0.00 0.00 87 1016.1
20260505173055 5 244 0.0 4.8 0.00 0.00 0.00 89 1016.0
20260505171551 5 193 0.0 1.6 0.00 0.00 0.00 90 1015.9
20260505170045 5 157 0.0 0.0 0.00 0.00 0.00 91 1016.0
20260505164541 3 38 0.0 0.0 0.00 0.00 0.00 91 1015.7
20260505163037 3 345 0.0 1.6 0.00 0.00 0.00 92 1015.6
20260505161532 3 187 0.0 1.6 0.00 0.00 0.00 93 1015.2
20260505153022 -17 0.0 0.0 0.00 0.00 0.00 1015.1
20260505151514 -17 0.0 0.0 0.00 0.00 0.00 1015.1
20260505140113 0 122 0.0 0.0 0.00 0.00 0.00 95 1015.2
20260505124553 0 244 0.0 0.0 0.00 0.00 0.00 95 1015.1
20260505123053 0 130 0.0 0.0 0.00 0.00 0.00 95 1014.9
20260505121549 0 229 0.0 0.0 0.00 0.00 0.00 95 1014.8
20260505120053 0 112 0.0 0.0 0.00 0.00 0.00 95 1014.9
20260505114557 0 129 0.0 0.0 0.00 0.00 0.00 95 1014.8
20260505113059 0 174 0.0 0.0 0.00 0.00 0.00 95 1014.9
20260505111549 0 150 0.0 0.0 0.00 0.00 0.00 95 1014.7
20260505101541 0 173 0.0 0.0 0.00 0.00 0.00 95 1014.6
20260505100024 0 161 0.0 0.0 0.00 0.00 0.00 95 1014.7
20260505094533 0 100 0.0 0.0 0.00 0.00 0.00 95 1014.9
20260505093021 0 168 0.0 0.0 0.00 0.00 0.00 95 1015.0
20260505091520 0 47 0.0 0.0 0.00 0.00 0.00 95 1014.9
20260505090021 0 269 0.0 0.0 0.00 0.00 0.00 95 1015.1
20260505084512 0 186 0.0 0.0 0.00 0.00 0.00 95 1015.0
20260505083015 0 136 0.0 0.0 0.00 0.00 0.00 94 1015.0
20260505081502 0 34 0.0 0.0 0.00 0.00 0.00 94 1015.4
20260505074557 0 330 0.0 0.0 0.00 0.00 0.00 94 1015.1
20260505073104 0 15 0.0 0.0 0.00 0.00 0.00 94 1015.2
20260505071558 0 186 0.0 0.0 0.00 0.00 0.00 94 1015.1
20260505070044 0 105 0.0 0.0 0.00 0.00 0.00 94 1014.7
20260505064540 0 46 0.0 0.0 0.00 0.00 0.00 94 1014.8
20260505063034 0 219 0.0 0.0 0.00 0.00 0.00 94 1014.9
20260505061530 0 2 0.0 0.0 0.00 0.00 0.00 94 1015.0
20260505060041 0 297 0.0 0.0 0.00 0.00 0.00 94 1015.1
20260505054521 0 142 0.0 0.0 0.00 0.00 0.00 94 1015.4
20260505053016 0 328 0.0 0.0 0.00 0.00 0.00 94 1015.1
20260505051518 0 286 0.0 0.0 0.00 0.00 0.00 94 1014.9
20260505041602 1 194 0.0 0.0 0.00 0.00 0.00 94 1014.7
20260505040050 1 145 0.0 0.0 0.00 0.00 0.00 94 1014.7
20260505034552 1 181 0.0 0.0 0.00 0.00 0.00 94 1014.2
20260505033049 1 262 0.0 0.0 0.00 0.00 0.00 94 1014.1
20260505031553 1 327 0.0 0.0 0.00 0.00 0.00 94 1014.1
20260505030047 1 220 0.0 0.0 0.00 0.00 0.00 93 1014.1